User: anonymous   Login
Location: Unspecified
(0.0000°N, 0.0000°E)
Time: 07:13:26
(UTC+00:00)
Language:

LEMUR-2 BRIDGEMAN - Orbit

View from above orbital plane
View from above orbital plane
View from above satellite
View from above satellite

Ground track
Ground track

The orbit data is extracted from the following two-line orbital elements,

1 41595U 16019B   17176.73956864 +.10739610 +12600-4 +40436-3 0  9991
2 41595 051.6070 299.8110 0008434 317.9127 042.8936 16.43514669058161
Epoch (UTC): 25 June 2017 17:44:58
Eccentricity: 0.0008434
inclination: 51.6070°
perigee height: 151 km
apogee height: 162 km
right ascension of ascending node: 299.8110°
argument of perigee: 317.9127°
revolutions per day: 16.43514669
mean anomaly at epoch: 42.8936°
orbit number at epoch: 5816

The dashed part of the orbit path shows where the satellite is in the earth's shadow,  

DLR